Location: Albany
(35.0000°S, 118.0000°E)
Time: 12:12:58
(UTC-04:00)

Amateur Radio Satellites - All Passes

Search period start: 29 July 2015 11:42
Search period end: 30 July 2015 11:42
Location: Albany, 35.0000°S, 118.0000°E

Satellite Date Start Highest point End Downlink Frequencies (MHz)
Time Altitude Azimuth
SPROUT 29 Jul 11:44:20 11:48:06 28° 84° (E) 11:51:52 437.525
Cosmos 2491 29 Jul 11:45:53 11:54:21 58° 89° (E) 12:03:00 435.465 / 435.565
50 SAT 29 Jul 11:56:21 11:59:19 21° 251° (WSW) 12:02:10 437.505
AISAT 29 Jul 12:07:30 12:11:10 24° 250° (WSW) 12:14:41 437.250
TISAT 1 29 Jul 12:09:05 12:12:58 32° 83° (E) 12:16:48 437.305
AIST 1 29 Jul 12:11:29 12:15:44 60° 262° (W) 12:20:05
Cosmos 2504 29 Jul 12:11:45 12:13:26 11° 118° (ESE) 12:15:41 435.465 / 435.565
O/OREOS (USA 219) 29 Jul 12:16:24 12:20:44 43° 285° (WNW) 12:24:58 437.305
UKube-1 29 Jul 12:25:05 12:25:50 10° 246° (WSW) 12:26:19 .
ITAMSAT 1 29 Jul 12:29:06 12:31:10 13° 116° (ESE) 12:33:32 435.822/435.867
CUBEBUG 1 29 Jul 12:32:00 12:35:34 22° 250° (WSW) 12:38:58 437.445
ESTCUBE 1 29 Jul 12:47:19 12:49:49 14° 247° (WSW) 12:52:05 437.505/2401.250
Oscar 19 29 Jul 12:50:55 12:56:09 85° 103° (ESE) 13:01:27 437.125/150
BEESAT 29 Jul 12:52:18 12:55:03 16° 89° (E) 12:58:01 436.000
JAS-2 29 Jul 12:53:19 12:54:31 11° 117° (ESE) 12:56:12 435.910
SWISSCUBE 29 Jul 13:11:16 13:15:23 28° 84° (E) 13:19:32 437.505
YUBILEINY 29 Jul 13:16:41 13:23:10 22° 264° (W) 13:29:11 435.215
SPROUT 29 Jul 13:20:40 13:24:02 21° 250° (WSW) 13:27:14 437.525
Gurwin Techsat 1B 29 Jul 13:24:29 13:29:36 51° 107° (ESE) 13:34:50 435.225
AO-7 29 Jul 13:28:08 13:32:54 18° 124° (SE) 13:38:07 29.400- 29.500
ITUPSAT 1 29 Jul 13:30:19 13:34:53 40° 82° (E) 13:39:26 437.325
DANDE 29 Jul 13:34:44 13:34:49 10° 126° (SE) 13:35:30 436.750
Cosmos 2491 29 Jul 13:44:29 13:51:48 27° 250° (WSW) 13:58:53 435.465 / 435.565
TISAT 1 29 Jul 13:45:29 13:48:30 18° 249° (WSW) 13:51:20 437.305
Cosmos 2504 29 Jul 13:59:49 14:07:03 86° 94° (E) 14:13:57 435.465 / 435.565
ITAMSAT 1 29 Jul 14:04:57 14:10:07 71° 283° (WNW) 14:15:23 435.822/435.867
CUSAT 1 29 Jul 14:14:04 14:19:51 28° 113° (ESE) 14:24:39 437.405
STARS 29 Jul 14:18:01 14:18:51 11° 91° (E) 14:19:59 437.465
BEESAT 29 Jul 14:28:32 14:33:11 46° 253° (WSW) 14:37:45 436.000
JAS-2 29 Jul 14:31:44 14:38:58 74° 104° (ESE) 14:45:27 435.910
KKS-1 29 Jul 14:34:16 14:38:17 31° 83° (E) 14:42:16 437.445
HORYU 2 29 Jul 14:35:04 14:38:52 28° 109° (ESE) 14:42:46 437.375
SWISSCUBE 29 Jul 14:49:06 14:53:09 26° 250° (WSW) 14:57:05 437.505
Gurwin Techsat 1B 29 Jul 15:06:28 15:09:57 17° 271° (W) 15:13:13 435.225
ITUPSAT 1 29 Jul 15:09:03 15:12:30 19° 248° (WSW) 15:15:46 437.325
DANDE 29 Jul 15:12:28 15:20:11 67° 102° (ESE) 15:26:06 436.750
AO-7 29 Jul 15:16:24 15:24:42 87° 107° (ESE) 15:33:07 29.400- 29.500
STARS 29 Jul 15:51:19 15:55:43 56° 254° (WSW) 16:00:03 437.465
Cosmos 2504 29 Jul 15:55:46 15:58:16 12° 261° (W) 16:00:11 435.465 / 435.565
CUSAT 1 29 Jul 15:56:26 16:02:37 36° 268° (W) 16:07:23 437.405
GONETS M04 29 Jul 15:59:47 16:06:56 28° 110° (ESE) 16:14:18
KKS-1 29 Jul 16:11:17 16:14:43 21° 249° (WSW) 16:18:01 437.445
HORYU 2 29 Jul 16:11:52 16:15:30 23° 275° (W) 16:19:02 437.375
JAS-2 29 Jul 16:20:02 16:24:30 16° 271° (W) 16:28:18 435.910
MOZHAYETS 4 29 Jul 16:38:48 16:43:28 87° 77° (ENE) 16:48:06
CUTE-I 29 Jul 16:50:09 16:54:29 27° 111° (ESE) 16:58:59 437.470
DANDE 29 Jul 16:57:30 17:02:18 18° 261° (W) 17:06:09 436.750
AO-7 29 Jul 17:13:41 17:18:38 16° 270° (W) 17:22:57 29.400- 29.500
Cubesat XI-IV 29 Jul 17:32:08 17:37:25 69° 105° (ESE) 17:42:48 437.490
Cosmos 2499 29 Jul 17:50:55 17:56:50 27° 108° (ESE) 18:02:48 435.465 / 435.565
GONETS M04 29 Jul 17:55:41 18:04:22 58° 272° (W) 18:12:50
BRITE-PL 29 Jul 17:56:25 17:59:33 16° 115° (ESE) 18:03:03 437.365/2234.400
VERMONT LUNAR 29 Jul 17:58:50 18:01:31 28° 32° (NNE) 18:04:14 437.305
HO-68 29 Jul 18:15:22 18:19:00 15° 121° (ESE) 18:23:02 435.675
GOMX 1 29 Jul 18:22:25 18:25:49 18° 114° (ESE) 18:29:31 467.674
CUBESAT XI-V 29 Jul 18:24:26 18:29:14 85° 258° (WSW) 18:33:59 437.345
PCSat 29 Jul 18:24:44 18:30:03 52° 120° (ESE) 18:35:20 145.827
DOVE 4 29 Jul 18:27:26 18:29:07 12° 115° (ESE) 18:31:09 437.250
CUTE-I 29 Jul 18:29:39 18:34:27 33° 277° (W) 18:39:15 437.470
CANX-2 29 Jul 18:43:22 18:43:51 10° 113° (ESE) 18:44:37 2200.000
SO-50 29 Jul 18:48:37 18:53:02 87° 120° (ESE) 18:57:30 436.795
CINEMA 3 29 Jul 18:59:54 19:00:18 10° 115° (ESE) 19:01:04 145.822/145.860
PHONESAT 2.4 29 Jul 19:03:19 19:04:53 13° 37° (NE) 19:06:34 2401.200-2431.200
PRISM 29 Jul 19:10:17 19:14:32 69° 79° (E) 19:18:45 437.425
Cubesat XI-IV 29 Jul 19:15:57 19:18:08 12° 269° (W) 19:19:57 437.490
STRAND 1 29 Jul 19:20:51 19:26:06 82° 256° (WSW) 19:31:17 437.568
RS-15 29 Jul 19:31:46 19:40:05 23° 76° (ENE) 19:49:04 29.354- 29.394
BRITE-PL 29 Jul 19:32:19 19:37:29 60° 279° (W) 19:43:03 437.365/2234.400
VERMONT LUNAR 29 Jul 19:35:07 19:38:09 51° 197° (SSW) 19:41:12 437.305
Cosmos 2499 29 Jul 19:43:28 19:50:13 43° 270° (W) 19:56:44 435.465 / 435.565
CUBEBUG 2 29 Jul 19:48:01 19:50:35 15° 112° (ESE) 19:53:22 437.445
GOMX 1 29 Jul 19:58:17 20:03:26 55° 279° (W) 20:08:53 467.674
HO-68 29 Jul 19:58:38 20:05:52 89° 105° (ESE) 20:13:11 435.675
COMPASS 1 29 Jul 19:58:58 20:02:58 45° 105° (ESE) 20:07:01 437.405
DOVE 4 29 Jul 20:00:57 20:06:11 81° 282° (WNW) 20:11:37 437.250
Oscar 11 29 Jul 20:01:42 20:04:37 18° 110° (ESE) 20:07:42 145.826/435.025
CUTE 1.7 + AOD 2 29 Jul 20:07:05 20:11:22 85° 280° (W) 20:15:41 437.475
SEEDS 29 Jul 20:08:57 20:13:11 80° 103° (ESE) 20:17:27 437.485
PCSat 29 Jul 20:09:26 20:13:06 18° 286° (WNW) 20:16:31 145.827
CANX-2 29 Jul 20:15:05 20:19:19 60° 280° (W) 20:23:35 2200.000
CINEMA 3 29 Jul 20:31:48 20:36:51 85° 283° (WNW) 20:41:59 145.822/145.860
PHONESAT 2.4 29 Jul 20:39:02 20:42:29 76° 24° (NNE) 20:45:57 2401.200-2431.200
AAUSAT CUBESAT 2 29 Jul 20:42:49 20:46:56 60° 280° (W) 20:51:06 437.432
ISS 29 Jul 20:48:47 20:51:59 50° 46° (NE) 20:55:13 145.825
DELFI C3 29 Jul 20:49:13 20:53:00 40° 106° (ESE) 20:56:51 145.870
ZACube-1 29 Jul 20:55:24 20:59:48 47° 105° (ESE) 21:04:13 437.345
VERMONT LUNAR 29 Jul 21:12:30 21:15:14 28° 181° (S) 21:18:01 437.305
UWE-3 29 Jul 21:12:32 21:17:15 84° 282° (WNW) 21:21:57 435.000/436.395/437.385
FUNcube-1 29 Jul 21:18:11 21:22:47 84° 105° (ESE) 21:27:22 145.935
CUBEBUG 2 29 Jul 21:22:13 21:26:53 51° 279° (W) 21:31:32 437.445
AISAT 29 Jul 21:26:11 21:29:04 18° 112° (ESE) 21:32:10 437.250
Oscar 11 29 Jul 21:36:37 21:40:34 33° 277° (W) 21:44:32 145.826/435.025
COMPASS 1 29 Jul 21:37:12 21:38:56 12° 270° (W) 21:40:25 437.405
UKube-1 29 Jul 21:37:25 21:41:22 35° 108° (ESE) 21:45:24 .
RS-15 29 Jul 21:39:12 21:51:34 84° 240° (WSW) 22:03:40 29.354- 29.394
CUBEBUG 1 29 Jul 21:49:20 21:52:03 17° 112° (ESE) 21:54:58 437.445
UNISAT 6 29 Jul 21:49:26 21:52:27 19° 87° (E) 21:55:35 437.425
M-CUBED/EXP-1 PRIME 29 Jul 21:49:54 21:53:15 89° 112° (ESE) 21:56:40 437.505
HO-68 29 Jul 21:51:05 21:54:36 13° 268° (W) 21:57:33 435.675
DX 1 29 Jul 22:00:39 22:05:01 75° 104° (ESE) 22:09:29 434.975-435.025
Cosmos 2491 29 Jul 22:01:21 22:08:00 24° 112° (ESE) 22:14:58 435.465 / 435.565
VELOX 1 29 Jul 22:04:35 22:08:49 45° 107° (ESE) 22:13:09 145.980
HUMSAT D 29 Jul 22:05:20 22:09:38 67° 281° (WNW) 22:13:58 437.325/437.525
ESTCUBE 1 29 Jul 22:05:29 22:09:24 31° 108° (ESE) 22:13:27 437.505/2401.250
PHONESAT 2.4 29 Jul 22:17:24 22:20:38 36° 189° (S) 22:23:54 2401.200-2431.200
POLYITAN 1 29 Jul 22:17:37 22:19:56 15° 89° (E) 22:22:27 437.675
AUBIESAT-1 29 Jul 22:22:13 22:25:21 36° 249° (WSW) 22:28:31 437.475
AIST 1 29 Jul 22:22:32 22:26:06 24° 105° (ESE) 22:29:45
YUBILEINY 29 Jul 22:24:09 22:27:26 13° 100° (E) 22:31:30 435.215
BEESAT 3 29 Jul 22:25:35 22:27:30 14° 70° (ENE) 22:29:36 437.485
ISS 29 Jul 22:26:19 22:28:39 17° 209° (SSW) 22:30:56 145.825
DELFI C3 29 Jul 22:26:34 22:28:19 12° 271° (W) 22:29:52 145.870
TIGRISAT 29 Jul 22:32:58 22:37:18 61° 80° (E) 22:41:31 435.000
ANTELSAT 29 Jul 22:33:31 22:37:52 65° 79° (E) 22:42:06 437.575/2403.000
ZACube-1 29 Jul 22:33:53 22:36:26 14° 271° (W) 22:38:44 437.345
POPSAT HIP 1 29 Jul 22:34:56 22:38:22 23° 85° (E) 22:41:49 437.405
50 SAT 29 Jul 22:35:37 22:39:32 60° 281° (W) 22:43:28 437.505
SPROUT 29 Jul 22:36:19 22:38:50 16° 112° (ESE) 22:41:34 437.525
QB50P2 29 Jul 22:41:37 22:45:22 29° 84° (E) 22:49:07 145.880/145.840
VERMONT LUNAR 29 Jul 22:49:20 22:52:22 45° 165° (SSE) 22:55:25 437.305
BUGSAT 1 29 Jul 22:53:45 22:57:10 23° 85° (E) 23:00:37 437.445
TISAT 1 29 Jul 22:58:50 23:01:34 17° 111° (ESE) 23:04:28 437.305
AISAT 29 Jul 23:01:10 23:05:22 38° 278° (W) 23:09:36 437.250
DUCHIFAT 1 29 Jul 23:08:59 23:13:15 59° 80° (E) 23:17:26 145.980
QB50P1 29 Jul 23:10:05 23:14:23 64° 79° (E) 23:18:36 145.935-145.965
NANOSAT C BR1 29 Jul 23:12:27 23:16:45 68° 79° (E) 23:20:58 145.865
UKube-1 29 Jul 23:14:43 23:17:38 17° 273° (W) 23:20:25 .
BEESAT 2 29 Jul 23:17:30 23:21:14 44° 65° (ENE) 23:25:01 435.950
CUBEBUG 1 29 Jul 23:24:00 23:28:07 38° 278° (W) 23:32:18 437.445
UNISAT 6 29 Jul 23:25:29 23:29:19 30° 252° (WSW) 23:33:03 437.425
ESTCUBE 1 29 Jul 23:42:53 23:46:20 21° 274° (W) 23:49:41 437.505/2401.250
VELOX 1 29 Jul 23:43:11 23:45:39 14° 271° (W) 23:47:54 145.980
POLYITAN 1 29 Jul 23:52:01 23:56:03 38° 253° (WSW) 23:59:59 437.675
PHONESAT 2.4 29 Jul 23:55:49 23:59:03 35° 172° (S) 00:02:19 2401.200-2431.200
RS-15 29 Jul 23:56:19 00:06:12 26° 216° (SW) 00:15:27 29.354- 29.394
BEESAT 29 Jul 23:56:39 23:58:45 13° 114° (ESE) 00:01:05 436.000
Cosmos 2491 29 Jul 23:56:51 00:05:41 66° 273° (W) 00:14:21 435.465 / 435.565
AIST 1 30 Jul 00:00:04 00:03:42 24° 270° (W) 00:07:11
BEESAT 3 30 Jul 00:01:28 00:05:08 38° 236° (WSW) 00:08:49 437.485
SPROUT 30 Jul 00:10:30 00:14:36 40° 278° (W) 00:18:45 437.525
POPSAT HIP 1 30 Jul 00:10:37 00:14:10 24° 251° (WSW) 00:17:36 437.405
TIGRISAT 30 Jul 00:13:09 00:13:33 10° 246° (WSW) 00:13:40 435.000
YUBILEINY 30 Jul 00:14:18 00:23:09 84° 85° (E) 00:32:03 435.215
SWISSCUBE 30 Jul 00:15:03 00:18:42 23° 111° (ESE) 00:22:31 437.505
QB50P2 30 Jul 00:17:52 00:21:05 20° 250° (WSW) 00:24:08 145.880/145.840
VERMONT LUNAR 30 Jul 00:26:10 00:29:04 34° 330° (NNW) 00:31:59 437.305
BUGSAT 1 30 Jul 00:29:03 00:32:33 24° 250° (WSW) 00:35:56 437.445
AIST 2 30 Jul 00:31:59 00:36:00 66° 64° (ENE) 00:40:03 435.215
TISAT 1 30 Jul 00:33:07 00:37:04 35° 277° (W) 00:41:02 437.305
ITUPSAT 1 30 Jul 00:34:05 00:38:17 32° 109° (ESE) 00:42:36 437.325
Cosmos 2504 30 Jul 00:40:24 00:41:28 10° 99° (E) 00:43:20 435.465 / 435.565
O/OREOS (USA 219) 30 Jul 00:46:13 00:50:14 31° 76° (ENE) 00:54:21 437.305
DUCHIFAT 1 30 Jul 00:47:40 00:48:34 10° 246° (WSW) 00:49:12 145.980
BEESAT 2 30 Jul 00:57:18 00:59:32 14° 228° (SW) 01:01:39 435.950
Oscar 19 30 Jul 01:06:13 01:11:05 39° 82° (E) 01:15:54 437.125/150
KKS-1 30 Jul 01:29:48 01:33:01 20° 111° (ESE) 01:36:25 437.445
BEESAT 30 Jul 01:31:24 01:36:07 58° 281° (W) 01:40:53 436.000
PHONESAT 2.4 30 Jul 01:33:44 01:37:14 83° 334° (NNW) 01:40:44 2401.200-2431.200
Gurwin Techsat 1B 30 Jul 01:44:34 01:49:00 27° 85° (E) 01:53:31 435.225
SWISSCUBE 30 Jul 01:52:08 01:56:24 32° 277° (W) 02:00:40 437.505
ITUPSAT 1 30 Jul 02:12:28 02:16:14 22° 274° (W) 02:19:55 437.325
AIST 2 30 Jul 02:13:42 02:15:03 11° 225° (SW) 02:16:11 435.215
YUBILEINY 30 Jul 02:15:25 02:21:15 18° 244° (WSW) 02:26:34 435.215
RS-15 30 Jul 02:20:16 02:24:49 13° 181° (S) 02:29:16 29.354- 29.394
ITAMSAT 1 30 Jul 02:21:12 02:26:23 55° 80° (E) 02:31:32 435.822/435.867
Cosmos 2504 30 Jul 02:24:13 02:32:42 74° 86° (E) 02:40:49 435.465 / 435.565
O/OREOS (USA 219) 30 Jul 02:26:05 02:29:43 22° 241° (WSW) 02:33:17 437.305
DANDE 30 Jul 02:37:12 02:40:40 15° 100° (E) 02:44:58 436.750
STARS 30 Jul 02:44:24 02:48:52 83° 103° (ESE) 02:53:24 437.465
Oscar 19 30 Jul 02:46:13 02:50:12 22° 248° (WSW) 02:53:59 437.125/150
KKS-1 30 Jul 03:05:22 03:09:27 33° 277° (W) 03:13:33 437.445
CUSAT 1 30 Jul 03:12:22 03:19:01 43° 90° (E) 03:26:43 437.405
PHONESAT 2.4 30 Jul 03:12:50 03:14:53 15° 323° (NW) 03:16:51 2401.200-2431.200
ISS 30 Jul 03:19:37 03:21:55 17° 150° (SSE) 03:24:16 145.825
AO-7 30 Jul 03:22:14 03:29:43 36° 82° (E) 03:37:19 29.400- 29.500
Gurwin Techsat 1B 30 Jul 03:24:13 03:29:01 33° 250° (WSW) 03:33:42 435.225
JAS-2 30 Jul 03:30:05 03:35:22 84° 79° (E) 03:40:41 435.910
MOZHAYETS 4 30 Jul 03:37:16 03:41:45 55° 105° (ESE) 03:46:17
ITAMSAT 1 30 Jul 04:02:07 04:05:29 17° 246° (WSW) 04:08:35 435.822/435.867
HORYU 2 30 Jul 04:05:14 04:09:44 89° 91° (E) 04:14:12 437.375
JUGNU 30 Jul 04:15:03 04:18:32 16° 8° (N) 04:22:06 437.505
DANDE 30 Jul 04:15:38 04:22:31 88° 82° (E) 04:31:00 436.750
Cosmos 2504 30 Jul 04:19:36 04:25:41 20° 249° (WSW) 04:31:12 435.465 / 435.565
RS-15 30 Jul 04:34:42 04:43:28 25° 146° (SE) 04:52:16 29.354- 29.394
CUSAT 1 30 Jul 04:54:55 05:01:42 37° 251° (WSW) 05:09:13 437.405
ISS 30 Jul 04:55:21 04:58:35 49° 314° (NW) 05:01:45 145.825
GONETS M04 30 Jul 04:56:30 05:04:05 35° 93° (E) 05:11:57
STRAND 1 30 Jul 04:58:49 04:59:51 11° 116° (ESE) 05:01:14 437.568
CUTE-I 30 Jul 05:11:48 05:14:14 13° 90° (E) 05:17:00 437.470
AO-7 30 Jul 05:14:46 05:22:38 45° 246° (WSW) 05:30:23 29.400- 29.500
MOZHAYETS 4 30 Jul 05:17:36 05:19:23 12° 269° (W) 05:20:53
CUBESAT XI-V 30 Jul 05:24:17 05:28:51 63° 105° (ESE) 05:33:32 437.345
Cubesat XI-IV 30 Jul 05:53:04 05:58:02 36° 83° (E) 06:03:01 437.490
PRISM 30 Jul 05:57:18 06:00:54 31° 108° (ESE) 06:04:38 437.425
SRMSAT 30 Jul 06:02:10 06:05:47 16° 8° (N) 06:09:26 437.500
DANDE 30 Jul 06:02:14 06:07:11 17° 240° (WSW) 06:12:07 436.750
JUGNU 30 Jul 06:02:57 06:06:52 18° 358° (N) 06:10:48 437.505
Cosmos 2499 30 Jul 06:22:49 06:29:39 28° 93° (E) 06:36:28 435.465 / 435.565
STRAND 1 30 Jul 06:33:20 06:38:26 81° 284° (WNW) 06:43:39 437.568
RS-15 30 Jul 06:46:34 06:58:02 84° 119° (ESE) 07:09:00 29.354- 29.394
CUTE-I 30 Jul 06:49:27 06:54:51 64° 254° (WSW) 07:00:11 437.470
GONETS M04 30 Jul 06:52:22 07:00:46 45° 256° (WSW) 07:09:09
CUBESAT XI-V 30 Jul 07:05:59 07:06:49 10° 268° (W) 07:07:18 437.345
HO-68 30 Jul 07:31:40 07:36:30 20° 88° (E) 07:41:37 435.675
Cubesat XI-IV 30 Jul 07:33:33 07:37:58 25° 248° (WSW) 07:42:14 437.490
PRISM 30 Jul 07:33:41 07:36:27 17° 273° (W) 07:39:06 437.425
AUBIESAT-1 30 Jul 07:35:06 07:35:42 10° 116° (ESE) 07:36:32 437.475
BRITE-PL 30 Jul 07:41:01 07:46:33 64° 81° (E) 07:51:39 437.365/2234.400
BEESAT 2 30 Jul 07:41:02 07:42:29 12° 134° (SE) 07:44:06 435.950
SRMSAT 30 Jul 07:50:16 07:54:17 18° 357° (N) 07:58:16 437.500
JUGNU 30 Jul 07:52:31 07:55:12 13° 348° (NNW) 07:57:48 437.505
CUTE 1.7 + AOD 2 30 Jul 07:56:23 07:59:33 21° 86° (E) 08:02:50 437.475
SEEDS 30 Jul 07:57:42 08:00:23 17° 88° (E) 08:03:13 437.485
CANX-2 30 Jul 08:03:59 08:07:41 29° 84° (E) 08:11:25 2200.000
GOMX 1 30 Jul 08:04:11 08:09:23 64° 80° (E) 08:14:09 467.674
DOVE 4 30 Jul 08:04:31 08:09:02 36° 84° (E) 08:13:17 437.250
Cosmos 2499 30 Jul 08:14:03 08:22:30 54° 259° (W) 08:30:26 435.465 / 435.565
BEESAT 3 30 Jul 08:22:31 08:26:17 40° 123° (ESE) 08:30:04 437.485
AAUSAT CUBESAT 2 30 Jul 08:29:21 08:32:52 26° 85° (E) 08:36:26 437.432
CINEMA 3 30 Jul 08:31:13 08:35:08 29° 85° (E) 08:38:55 145.822/145.860
M-CUBED/EXP-1 PRIME 30 Jul 08:34:19 08:38:33 69° 108° (ESE) 08:42:29 437.505
UNISAT 6 30 Jul 08:46:12 08:48:22 14° 112° (ESE) 08:50:47 437.425
ZACube-1 30 Jul 08:50:27 08:51:04 10° 91° (E) 08:51:57 437.345
AIST 2 30 Jul 08:57:22 09:00:10 18° 130° (SE) 09:03:04 435.215
SO-50 30 Jul 08:59:47 09:04:17 62° 63° (ENE) 09:08:42 436.795
RS-15 30 Jul 09:01:24 09:09:13 21° 283° (WNW) 09:16:10 29.354- 29.394
PCSat 30 Jul 09:02:44 09:08:09 87° 247° (WSW) 09:13:39 145.827
AUBIESAT-1 30 Jul 09:06:01 09:10:09 55° 285° (WNW) 09:14:00 437.475
UWE-3 30 Jul 09:06:47 09:10:14 24° 86° (E) 09:13:40 435.000/436.395/437.385
FUNcube-1 30 Jul 09:11:06 09:14:06 19° 87° (E) 09:17:11 145.935
BEESAT 2 30 Jul 09:16:59 09:20:57 59° 297° (WNW) 09:24:53 435.950
CUBEBUG 2 30 Jul 09:17:05 09:21:13 42° 82° (E) 09:25:13 437.445
HO-68 30 Jul 09:17:40 09:24:50 66° 252° (WSW) 09:31:54 435.675
COMPASS 1 30 Jul 09:20:53 09:25:02 57° 256° (WSW) 09:29:09 437.405
BRITE-PL 30 Jul 09:21:14 09:24:26 15° 245° (WSW) 09:27:16 437.365/2234.400
POPSAT HIP 1 30 Jul 09:26:00 09:27:50 13° 113° (ESE) 09:29:54 437.405
Oscar 11 30 Jul 09:26:46 09:31:03 55° 81° (E) 09:35:19 145.826/435.025
TIGRISAT 30 Jul 09:28:10 09:32:27 37° 107° (ESE) 09:36:46 435.000
ANTELSAT 30 Jul 09:28:54 09:33:16 40° 107° (ESE) 09:37:36 437.575/2403.000
CUTE 1.7 + AOD 2 30 Jul 09:31:50 09:35:28 27° 252° (WSW) 09:39:01 437.475
QB50P2 30 Jul 09:32:18 09:34:50 16° 111° (ESE) 09:37:35 145.880/145.840
SEEDS 30 Jul 09:32:27 09:36:18 32° 253° (WSW) 09:40:02 437.485
SRMSAT 30 Jul 09:40:01 09:42:46 13° 348° (NNW) 09:45:26 437.500
CANX-2 30 Jul 09:40:17 09:43:27 20° 250° (WSW) 09:46:28 2200.000
BUGSAT 1 30 Jul 09:42:23 09:43:49 12° 113° (ESE) 09:45:30 437.445
DOVE 4 30 Jul 09:42:54 09:46:30 20° 248° (WSW) 09:49:48 437.250
GOMX 1 30 Jul 09:44:17 09:46:52 13° 245° (WSW) 09:49:06 467.674
HUMSAT D 30 Jul 09:53:18 09:56:39 24° 85° (E) 10:00:02 437.325/437.525
DX 1 30 Jul 09:53:33 09:56:21 17° 87° (E) 09:59:18 434.975-435.025
DUCHIFAT 1 30 Jul 09:58:11 10:01:52 29° 108° (ESE) 10:05:39 145.980
QB50P1 30 Jul 09:59:35 10:03:23 31° 108° (ESE) 10:07:17 145.935-145.965
VELOX 1 30 Jul 10:00:50 10:02:01 11° 90° (E) 10:03:30 145.980
NANOSAT C BR1 30 Jul 10:01:42 10:05:32 32° 108° (ESE) 10:09:27 145.865
BEESAT 3 30 Jul 10:01:49 10:03:55 14° 290° (WNW) 10:05:49 437.485
AAUSAT CUBESAT 2 30 Jul 10:05:07 10:08:21 21° 251° (WSW) 10:11:26 437.432
DELFI C3 30 Jul 10:06:00 10:10:05 72° 256° (WSW) 10:14:06 145.870
CINEMA 3 30 Jul 10:08:40 10:12:10 21° 249° (WSW) 10:15:26 145.822/145.860
50 SAT 30 Jul 10:15:11 10:17:51 18° 86° (E) 10:20:37 437.505
UNISAT 6 30 Jul 10:20:10 10:24:45 53° 280° (W) 10:29:19 437.425
ZACube-1 30 Jul 10:23:41 10:27:51 50° 255° (WSW) 10:31:53 437.345
YUBILEINY 30 Jul 10:29:19 10:37:05 35° 107° (ESE) 10:44:56 435.215
AIST 2 30 Jul 10:34:59 10:38:54 38° 294° (WNW) 10:42:47 435.215
POLYITAN 1 30 Jul 10:40:56 10:45:17 81° 282° (WNW) 10:49:42 437.675
SO-50 30 Jul 10:42:46 10:45:13 14° 226° (SW) 10:47:29 436.795
UWE-3 30 Jul 10:43:14 10:46:42 23° 251° (WSW) 10:49:59 435.000/436.395/437.385
FUNcube-1 30 Jul 10:46:48 10:50:29 28° 252° (WSW) 10:54:01 145.935
AIST 1 30 Jul 10:49:29 10:52:03 16° 92° (E) 10:54:50
PCSat 30 Jul 10:50:10 10:52:29 12° 225° (SW) 10:54:32 145.827
AISAT 30 Jul 10:54:49 10:59:16 52° 80° (E) 11:03:39 437.250
CUBEBUG 2 30 Jul 10:55:10 10:57:32 14° 248° (WSW) 10:59:41 437.445
Cosmos 2491 30 Jul 10:58:29 11:05:37 30° 94° (E) 11:13:05 435.465 / 435.565
POPSAT HIP 1 30 Jul 10:59:06 11:03:18 49° 279° (W) 11:07:33 437.405
O/OREOS (USA 219) 30 Jul 10:59:16 11:03:25 34° 116° (ESE) 11:07:32 437.305
UKube-1 30 Jul 11:03:38 11:08:04 78° 256° (WSW) 11:12:25 .
Oscar 11 30 Jul 11:05:12 11:06:48 12° 247° (WSW) 11:08:08 145.826/435.025
TIGRISAT 30 Jul 11:06:02 11:09:20 18° 273° (W) 11:12:26 435.000
QB50P2 30 Jul 11:06:22 11:10:26 39° 278° (W) 11:14:32 145.880/145.840
ANTELSAT 30 Jul 11:07:03 11:10:12 17° 272° (W) 11:13:08 437.575/2403.000
HO-68 30 Jul 11:10:06 11:11:24 10° 236° (SW) 11:12:11 435.675
BUGSAT 1 30 Jul 11:14:42 11:18:50 52° 280° (W) 11:23:04 437.445
CUBEBUG 1 30 Jul 11:15:51 11:20:14 49° 81° (E) 11:24:33 437.445
DX 1 30 Jul 11:28:39 11:32:45 36° 252° (WSW) 11:36:46 434.975-435.025
HUMSAT D 30 Jul 11:29:01 11:32:18 22° 251° (WSW) 11:35:26 437.325/437.525
DUCHIFAT 1 30 Jul 11:34:25 11:37:41 20° 274° (W) 11:40:52 145.980
QB50P1 30 Jul 11:36:11 11:39:19 19° 273° (W) 11:42:20 145.935-145.965
